Regional Weather Roundup
Issued by NWS

Home | Current Version | Previous Version | Graphics & Text | Print | Product List | Glossary Off
Versions: 1 2 3 4 5 6 7 8 9 10 11 12 13 14 15 16 17 18 19 20 21 22 23 24 25 26 27 28 29 30 31 32 33 34 35 36 37 38 39 40 41 42 43 44 45 46 47 48 49 50

000
ASUS43 KTOP 010308
RWRKS

WEATHER ROUNDUP FOR KANSAS
NATIONAL WEATHER SERVICE GOODLAND KS
1000 PM CDT FRI SEP 30 2016

NOTE:  "FAIR" INDICATES FEW OR NO CLOUDS BELOW 12,000 FEET WITH NO
SIGNIFICANT WEATHER AND/OR OBSTRUCTIONS TO VISIBILITY.

KSZ001>006-013>018-027>032-041>047-010400-
NORTHWEST KANSAS

CITY           SKY/WX    TMP DP  RH WIND       PRES   REMARKS
GOODLAND       CLEAR     59  45  59 SE8       30.15R
HAYS           PTCLDY    59  41  51 E9        30.14S
HILL CITY      MOCLDY    54  49  83 E6        30.15S
RUSSELL        PTCLDY    60  47  61 E9        30.13S
$$

KSZ061>065-074>080-084>089-010400-
SOUTHWEST KANSAS

CITY           SKY/WX    TMP DP  RH WIND       PRES   REMARKS
DODGE CITY     CLOUDY    60  45  57 SE9       30.13R
ELKHART          N/A     62  44  51 SE14        N/A
GARDEN CITY    CLOUDY    64  47  53 SE14      30.11R
GREAT BEND     PTCLDY    59  43  55 SE7       30.13S
LIBERAL        CLEAR     66  46  48 SE10      30.11R
PRATT          CLEAR     58  44  58 SE5       30.14S
$$

KSZ066>073-081>083-090>101-010400-
SOUTHEAST KANSAS

CITY           SKY/WX    TMP DP  RH WIND       PRES   REMARKS
CHANUTE        PTCLDY    58  54  86 CALM      30.12R
COFFEYVILLE    CLEAR     57  52  83 CALM      30.11S
HUTCHINSON     CLOUDY    53  50  89 CALM      30.13F
MEDICINE LODGE   N/A     61  47  59 E8        30.12S
NEWTON         CLOUDY    60  51  72 E3        30.14S
PARSONS        CLEAR     53  51  93 CALM      30.12S
WICHITA INTL   PTCLDY    61  52  72 CALM      30.12S
WICHITA JABRA  PTCLDY    60  53  77 CALM      30.12S
WICHITA MCCONL PTCLDY    62  50  64 E2        30.12F
WINFIELD       PTCLDY    59  52  77 CALM      30.13S
$$

KSZ007>012-019>026-033>040-048>060-102>105-010400-
NORTHEAST KANSAS

CITY           SKY/WX    TMP DP  RH WIND       PRES   REMARKS
CONCORDIA      PTCLDY    56  50  80 S6        30.15R HAZE
EMPORIA        CLEAR     58  52  80 CALM      30.13R
LAWRENCE       CLOUDY    53  52  96 NW3       30.13R
MANHATTAN      CLOUDY    54  51  90 CALM      30.13S
MARYSVILLE     PTCLDY    55  46  71 CALM      30.14R
OLATHE IND     CLEAR     61  52  72 E3        30.13R
OLATHE EXE     CLEAR     61  52  72 E6        30.13R
SALINA         CLOUDY    60  51  72 CALM      30.14S
TOPEKA BILLARD PTCLDY    58  53  84 CALM      30.12S
TOPEKA FORBES  PTCLDY    57  53  86 CALM      30.12S
$$



USA.gov is the U.S. government's official web portal to all federal, state and local government web resources and services.